Home   Weather   Faversham   Past weeks
Flag for United Kingdom

Past Weather in Faversham, England, United Kingdom — Yesterday and Last 2 Weeks

Now
43 °F

Quite cool.


Feels Like: 40 °F
Forecast: 55 / 38 °F
Wind: 5 mph from Northwest

Location: Shoeburyness

Current Time: Mar 27, 2019 at 12:52:08 am

Latest Report: Mar 27, 2019 at 12:00 am


Visibility: 9 mi

Pressure: 30.52 "Hg

Humidity: 87%

Dew Point: 39 °F

Location of FavershamLocation

Past Weather in Faversham — Graph

°F

Faversham Temperature Yesterday

Maximum temperature yesterday: 53 °F (at 2:00 pm)
Minimum temperature yesterday: 31 °F (at 5:00 am)
Average temperature yesterday: 43 °F

High & Low Weather Summary for the Past Weeks

 TemperatureHumidityPressure
High59 °F (Mar 15, 1:00 pm)100% (Mar 24, 7:00 am)30.57 "Hg (Mar 24, 7:00 am)
Low31 °F (Mar 26, 5:00 am)46% (Mar 17, 2:00 pm)29.38 "Hg (Mar 16, 9:00 pm)
Average47 °F79%30.13 "Hg
* Reported Mar 11 11:00 pm — Mar 26 11:00 pm, Faversham. Weather by CustomWeather, © 2019

Note: Actual official high and low records may vary slightly from our data, if they occured in-between our weather recording intervals... More about our weather records

Advertising

Faversham Weather History for the Previous 24 Hours

Scroll right to see more
 ConditionsComfort  
Time TempWeatherWind HumidityBarometerVisibility
11:00 pm
Tue, Mar 26
44 °FQuite cool.3 mph79%30.52 "Hg10 mi
10:00 pm46 °FCool.3 mph72%30.51 "Hg12 mi
9:00 pm42 °FQuite cool.3 mph78%30.52 "Hg9 mi
8:00 pm46 °FCool.5 mph67%30.51 "Hg11 mi
7:00 pm46 °FCool.5 mph73%30.51 "Hg14 mi
6:00 pm50 °FCool.3 mph67%30.50 "Hg14 mi
5:00 pm52 °FCool.6 mph61%30.49 "Hg19 mi
4:00 pm52 °FCool.6 mph60%30.49 "Hg22 mi
3:00 pm53 °FCool.7 mph56%30.50 "Hg18 mi
2:00 pm53 °FCool.13 mph57%30.51 "Hg17 mi
1:00 pm52 °FCool.10 mph61%30.52 "Hg16 mi
12:00 pm50 °FSmoke.12 mph67%30.53 "Hg6 mi
11:00 am49 °FCool.9 mph68%30.54 "Hg9 mi
10:00 am45 °FCool.7 mph76%30.55 "Hg8 mi
9:00 am44 °FQuite cool.8 mph82%30.54 "Hg8 mi
8:00 am42 °FQuite cool.8 mph84%30.54 "Hg8 mi
7:00 am39 °FChilly.8 mph89%30.54 "Hg9 mi
6:00 am34 °FChilly.6 mph97%30.53 "Hg6 mi
5:00 am31 °FChilly.3 mph93%30.54 "Hg9 mi
4:00 am34 °FChilly.3 mph94%30.55 "Hg7 mi
3:00 am34 °FChilly.5 mph94%30.55 "Hg6 mi
2:00 am34 °FChilly.6 mph93%30.57 "Hg6 mi
1:00 am33 °FChilly.5 mph91%30.56 "Hg7 mi
12:00 am34 °FChilly.6 mph89%30.57 "Hg7 mi
Weather by CustomWeather, © 2019

See weather overview